This demonstration page uses our WeatherBlox Daily Observations layout. Learn more.

40.92945, -100.16068

Hourly Observations for January 31, 2020

Temp ( °F °C ) Dew Point ( °F °C ) Humidity (%) Winds ( mph kmh ) Pressure ( in mb ) Visibility ( mi km ) Precip ( " mm )
12:15 am 00:15 Partly Cloudy 35 1.4 32 0.2 92 92 NW 14 22 30.09 1019 10 16.0934 0 0
12:35 am 00:35 Clear 34 1.1 32 0 92 92 NW 13 20 30.1 1019 10 16.0934 0 0
12:55 am 00:55 Partly Cloudy 34 1.2 31 -0.3 90 90 NW 15 24 30.11 1019 10 16.0934 0 0
1:15 am 01:15 Mostly Cloudy 35 1.6 32 -0.1 89 89 NW 16 26 30.1 1019 10 16.0934 0 0
1:35 am 01:35 Cloudy 35 1.8 32 -0.1 87 87 NW 17 28 30.09 1019 10 16.0934 0 0
1:55 am 01:55 Cloudy 36 2 31 -0.3 85 85 NW 16 26 30.09 1019 10 16.0934 0 0
2:15 am 02:15 Cloudy 36 2 31 -0.3 85 85 NW 14 22 30.08 1019 10 16.0934 0 0
2:35 am 02:35 Cloudy 36 2 30 -0.9 81 81 NW 21 33 30.09 1019 10 16.0934 0 0
2:55 am 02:55 Cloudy 35 1.8 29 -1.4 80 80 NNW 22 35 30.09 1019 10 16.0934 0 0
3:15 am 03:15 Cloudy 35 1.6 30 -1.2 82 82 NW 15 24 30.09 1019 10 16.0934 0 0
3:35 am 03:35 Cloudy 35 1.6 29 -1.5 80 80 NW 18 30 30.09 1019 10 16.0934 0 0
3:55 am 03:55 Cloudy 35 1.5 28 -2.3 76 76 NW 20 31 30.1 1019 10 16.0934 0 0
4:15 am 04:15 Cloudy 34 1.1 27 -2.7 76 76 NNW 22 35 30.11 1020 10 16.0934 0 0
4:35 am 04:35 Partly Cloudy 33 0.4 27 -3 78 78 NW 15 24 30.11 1020 10 16.0934 0 0
4:55 am 04:55 Clear 32 0 26 -3.5 78 78 NW 14 22 30.13 1020 10 16.0934 0 0
5:15 am 05:15 Clear 31 -0.3 25 -3.8 78 78 NW 12 19 30.13 1020 10 16.0934 0 0
5:35 am 05:35 Clear 30 -1.2 25 -3.7 83 83 WNW 12 19 30.14 1021 10 16.0934 0 0
5:55 am 05:55 Clear 29 -1.5 25 -4 83 83 WNW 13 20 30.15 1021 10 16.0934 0 0
6:15 am 06:15 Clear 29 -1.8 24 -4.3 83 83 WNW 10 17 30.16 1021 10 16.0934 0 0
6:35 am 06:35 Clear 29 -1.9 24 -4.6 82 82 WNW 14 22 30.16 1021 10 16.0934 0 0
6:55 am 06:55 Clear 28 -2 24 -4.5 83 83 WNW 10 17 30.15 1021 10 16.0934 0 0
7:15 am 07:15 Clear 28 -2.1 24 -4.4 84 84 WNW 14 22 30.15 1021 10 16.0934 0 0
7:35 am 07:35 Clear 28 -2 24 -4.4 84 84 NW 12 19 30.15 1021 10 16.0934 0 0
7:55 am 07:55 Sunny 28 -2.5 24 -4.4 87 87 NW 12 19 30.16 1021 10 16.0934 0 0
8:15 am 08:15 Sunny 28 -2.2 24 -4.4 85 85 NW 10 17 30.16 1021 10 16.0934 0 0
8:35 am 08:35 Sunny 28 -2.1 24 -4.3 85 85 NW 10 17 30.16 1021 10 16.0934 0 0
8:55 am 08:55 Sunny 29 -1.5 25 -4.1 83 83 WNW 10 17 30.15 1021 10 16.0934 0 0
9:15 am 09:15 Sunny 30 -1 25 -3.8 82 82 WNW 13 20 30.16 1021 10 16.0934 0 0
9:35 am 09:35 Sunny 31 -0.3 25 -3.8 78 78 NW 12 19 30.15 1021 10 16.0934 0 0
9:55 am 09:55 Sunny 32 0 26 -3.5 78 78 WNW 13 20 30.16 1021 10 16.0934 0 0
10:15 am 10:15 Sunny 33 0.5 26 -3.4 75 75 NW 16 26 30.16 1021 10 16.0934 0 0
10:35 am 10:35 Sunny 33 0.7 26 -3.1 76 76 NW 14 22 30.15 1021 10 16.0934 0 0
10:55 am 10:55 Sunny 35 1.5 26 -3.1 72 72 WNW 16 26 30.14 1021 10 16.0934 0 0
11:15 am 11:15 Sunny 35 1.9 26 -3.2 69 69 NW 18 30 30.14 1021 10 16.0934 0 0
11:35 am 11:35 Sunny 36 2.3 26 -3.2 67 67 NW 16 26 30.13 1020 10 16.0934 0 0
11:55 am 11:55 Sunny 38 3.1 26 -3.1 64 64 NW 18 30 30.13 1020 10 16.0934 0 0
12:15 pm 12:15 Sunny 39 3.8 25 -3.9 58 58 NW 21 33 30.11 1020 10 16.0934 0 0
12:35 pm 12:35 Sunny 39 4 23 -5.2 52 52 NNW 18 30 30.1 1019 10 16.0934 0 0
12:55 pm 12:55 Sunny 40 4.3 23 -5 51 51 NW 15 24 30.09 1019 10 16.0934 0 0
1:15 pm 13:15 Sunny 40 4.7 24 -4.5 52 52 NW 17 28 30.09 1019 10 16.0934 0 0
1:35 pm 13:35 Sunny 41 5.1 24 -4.7 50 50 NNW 16 26 30.08 1019 10 16.0934 0 0
1:55 pm 13:55 Sunny 41 5.2 23 -5 48 48 NNW 13 20 30.07 1018 10 16.0934 0 0
2:15 pm 14:15 Sunny 42 5.6 23 -4.8 47 47 NNW 13 20 30.05 1018 10 16.0934 0 0
2:35 pm 14:35 Sunny 42 5.8 23 -4.9 46 46 NNW 12 19 30.05 1018 10 16.0934 0 0
2:55 pm 14:55 Sunny 43 6.1 23 -4.8 46 46 NW 12 19 30.04 1017 10 16.0934 0 0
3:15 pm 15:15 Sunny 44 6.5 23 -5 44 44 NW 13 20 30.03 1017 10 16.0934 0 0
3:35 pm 15:35 Sunny 44 6.7 23 -4.9 44 44 NNW 13 20 30.04 1017 10 16.0934 0 0
3:55 pm 15:55 Sunny 44 6.5 24 -4.5 46 46 NNW 15 24 30.04 1017 10 16.0934 0 0
4:15 pm 16:15 Sunny 43 6.2 24 -4.7 46 46 NNW 12 19 30.04 1017 10 16.0934 0 0
4:35 pm 16:35 Sunny 43 6.2 25 -4 48 48 NNW 8 13 30.06 1018 10 16.0934 0 0
4:55 pm 16:55 Sunny 42 5.7 25 -3.8 51 51 NNW 8 13 30.06 1018 10 16.0934 0 0
5:15 pm 17:15 Sunny 41 5.1 26 -3.5 54 54 NNW 7 11 30.07 1018 10 16.0934 0 0
5:35 pm 17:35 Sunny 39 3.9 26 -3.4 59 59 NNW 6 9 30.07 1018 10 16.0934 0 0
5:55 pm 17:55 Clear 38 3.2 24 -4.2 59 59 NNW 6 9 30.09 1019 10 16.0934 0 0
6:15 pm 18:15 Clear 34 1.1 24 -4.5 67 67 N 3 6 30.12 1020 10 16.0934 0 0
6:35 pm 18:35 Clear 35 1.8 24 -4.6 63 63 Calm 30.11 1020 10 16.0934 0 0
6:55 pm 18:55 Clear 33 0.6 26 -3.6 74 74 Calm 30.13 1020 10 16.0934 0 0
7:15 pm 19:15 Clear 32 0.1 25 -4.1 74 74 Calm 30.14 1021 10 16.0934 0 0
7:35 pm 19:35 Clear 32 -0.1 24 -4.2 74 74 Calm 30.15 1021 10 16.0934 0 0
7:55 pm 19:55 Clear 31 -0.4 25 -4 77 77 SW 3 6 30.15 1021 10 16.0934 0 0
8:15 pm 20:15 Clear 31 -0.7 26 -3.4 82 82 Calm 30.15 1021 10 16.0934 0 0
8:35 pm 20:35 Clear 29 -1.5 25 -3.9 84 84 Calm 30.17 1022 10 16.0934 0 0
8:55 pm 20:55 Clear 30 -1.1 25 -4 81 81 Calm 30.17 1022 10 16.0934 0 0
9:15 pm 21:15 Clear 29 -1.5 26 -3.6 86 86 Calm 30.17 1022 10 16.0934 0 0
9:35 pm 21:35 Clear 28 -2 27 -3 93 93 Calm 30.2 1023 10 16.0934 0 0
9:55 pm 21:55 Clear 28 -2.1 26 -3.6 90 90 N 3 6 30.2 1023 10 16.0934 0 0
10:15 pm 22:15 Clear 28 -2 26 -3.2 92 92 Calm 30.19 1022 10 16.0934 0 0
10:35 pm 22:35 Clear 29 -1.7 26 -3.3 89 89 WNW 3 6 30.19 1022 10 16.0934 0 0
10:55 pm 22:55 Clear 29 -1.5 28 -2.5 93 93 W 3 6 30.18 1022 10 16.0934 0 0
11:35 pm 23:35 Clear 30 -1.1 26 -3.1 86 86 W 3 6 30.17 1022 10 16.0934 0 0
11:55 pm 23:55 Clear 30 -0.9 28 -2.4 90 90 W 5 7 30.18 1022 10 16.0934 0 0

Powered by AerisWeather